Location: Central Falls
(41.8900°N, 71.3929°W)
Time: 20:13:15
(UTC+00:00)

S-56A Canister/Altair - All Passes

Search period start: 06 December 2023 00:00
Search period end: 16 December 2023 00:00
Orbit: 640 x 2489 km, 38.8° (Epoch: 05 December)

Date Brightness Start Highest point End Pass type
(mag) Time Alt. Az. Time Alt. Az. Time Alt. Az.
06 Dec - 14:49:47 10° SSW 14:53:36 20° SSE 14:56:57 10° ESE daylight
06 Dec - 16:52:12 10° WSW 16:56:44 50° SSE 17:01:09 10° E daylight
06 Dec - 18:55:37 10° W 19:00:01 57° S 19:05:11 10° ESE daylight
06 Dec - 20:59:07 10° W 21:03:23 28° SSW 21:08:50 10° SE daylight
07 Dec - 14:16:48 10° SSW 14:20:35 18° SSE 14:23:50 10° ESE daylight
07 Dec - 16:19:05 10° WSW 16:23:46 47° SSE 16:28:05 10° E daylight
07 Dec - 18:22:38 10° W 18:27:01 58° S 18:31:55 10° ESE daylight
07 Dec - 20:26:10 10° W 20:30:20 30° SSW 20:35:32 10° SE daylight
08 Dec - 13:43:49 10° S 13:47:31 17° SSE 13:50:43 10° ESE daylight
08 Dec - 15:45:54 10° SW 15:50:48 44° SSE 15:55:04 10° E daylight
08 Dec - 17:49:36 10° W 17:54:04 60° S 17:58:43 10° ESE daylight
08 Dec - 19:53:12 10° W 19:57:19 32° SSW 20:02:16 10° SE daylight
08 Dec - 21:59:53 10° SW 22:00:41 10° SSW 22:01:30 10° SSW visible
09 Dec - 13:10:49 10° S 13:14:26 15° SSE 13:17:32 10° ESE daylight
09 Dec - 15:12:38 10° SW 15:17:49 41° SSE 15:22:05 10° E daylight
09 Dec - 17:16:29 10° W 17:21:06 61° S 17:25:36 10° ESE daylight
09 Dec - 19:20:13 10° W 19:24:19 35° SSW 19:29:04 10° SE daylight
09 Dec - 21:25:56 10° SW 21:27:35 11° SSW 21:29:22 10° SSW daylight
10 Dec - 12:37:50 10° S 12:41:18 14° SSE 12:44:19 10° ESE daylight
10 Dec - 14:39:18 10° SW 14:44:48 38° SSE 14:49:09 10° E daylight
10 Dec - 16:43:18 10° W 16:48:08 61° S 16:52:33 10° E daylight
10 Dec - 18:47:12 10° W 18:51:21 38° SSW 18:55:56 10° SE daylight
10 Dec - 20:52:24 10° SW 20:54:31 13° SSW 20:56:50 10° S daylight
11 Dec - 12:04:54 10° S 12:08:09 13° SSE 12:10:59 10° ESE daylight
11 Dec - 14:05:55 10° SW 14:11:46 36° SSE 14:16:14 10° E daylight
11 Dec - 16:10:01 10° WSW 16:15:10 61° S 16:19:34 10° E daylight
11 Dec - 18:14:07 10° W 18:18:23 42° SSW 18:22:50 10° SE daylight
11 Dec - 20:19:00 10° WSW 20:21:28 14° SSW 20:24:10 10° S daylight
12 Dec - 11:32:03 10° S 11:34:57 12° SSE 11:37:32 10° SE visible
12 Dec - 13:32:27 10° SW 13:38:41 34° SSE 13:43:20 10° E daylight
12 Dec - 15:36:39 10° WSW 15:42:09 60° S 15:46:37 10° E daylight
12 Dec - 17:40:59 10° W 17:45:26 46° SSW 17:49:48 10° ESE daylight
12 Dec - 19:45:42 10° WSW 19:48:27 16° SSW 19:51:27 10° S daylight
13 Dec - 10:59:26 10° SSE 11:01:43 11° SE 11:03:49 10° SE visible
13 Dec - 12:58:57 10° SW 13:05:34 32° SSE 13:10:25 10° E daylight
13 Dec - 15:03:12 10° WSW 15:09:08 59° S 15:13:43 10° E daylight
13 Dec - 17:07:45 10° W 17:12:29 50° SSW 17:16:49 10° ESE daylight
13 Dec - 19:12:24 10° WSW 19:15:28 18° SSW 19:18:42 10° SSE daylight
14 Dec - 10:27:27 10° SSE 10:28:26 10° SE 10:29:23 10° SE visible
14 Dec - 12:25:24 10° SW 12:32:24 31° SSE 12:37:29 10° E daylight
14 Dec - 14:29:38 10° WSW 14:36:05 58° S 14:40:51 10° E daylight
14 Dec - 16:34:27 10° W 16:39:31 55° S 16:43:53 10° ESE daylight
14 Dec - 18:39:07 10° WSW 18:42:30 21° SSW 18:45:57 10° SSE daylight
15 Dec - 11:51:50 10° SSW 11:59:11 29° SSE 12:04:32 10° E daylight
15 Dec - 13:56:00 10° WSW 14:03:00 56° S 14:07:59 10° E daylight
15 Dec - 16:01:03 10° W 16:06:32 59° S 16:10:58 10° ESE daylight
15 Dec - 18:05:49 10° W 18:09:33 24° SSW 18:13:11 10° SSE daylight
